Theta_e
301 301 302 303 303 302 301 302 302 302 302 300 300 301 294 292 292 301 306 308 304 296 290 292 290 289 291 295 294 297 295 294 295 294 296 294 295 294 294 295 294 297 296 296 295 296 294 295 294 296 297 298 300 301 302 303 302 301 299 300 301 301 294 292 293 297 299 300 301 301 303 302 299 299 300 299 296 297 295 294 296 291 292 291 291 288 294
302 302 302 302 302 301 301 301 301 301 301 301 300 295 292 295 295 298 305 308 303 293 285 285 287 290 294 294 294 296 295 294 293 292 294 293 294 294 295 297 299 295 299 297 295 298 290 296 297 296 299 298 304 302 302 303 300 299 299 296 302 292 296 294 289 289 291 294 297 296 300 301 298 297 298 300 300 299 300 299 299 291 293 294 291 285 292
302 303 302 301 301 301 301 301 301 301 301 302 300 292 295 295 298 297 300 304 301 292 293 291 289 291 291 292 291 293 293 294 293 293 292 294 294 294 294 297 300 298 299 296 298 298 295 293 298 298 298 301 303 301 302 302 301 302 303 306 303 296 295 293 286 284 282 281 283 286 290 294 298 299 298 299 299 299 297 291 293 288 294 295 292 291 300
302 302 301 301 301 301 301 301 301 301 301 302 299 296 294 292 285 292 297 299 300 297 299 297 293 291 292 289 292 293 291 293 293 293 292 293 294 295 296 298 299 297 296 295 294 295 298 296 295 295 300 301 301 302 302 302 301 304 311 306 303 296 298 296 294 291 289 291 294 298 298 297 294 296 298 297 300 300 299 297 292 290 293 292 296 300 298
302 302 300 300 300 301 301 301 301 301 302 302 299 297 294 294 288 290 287 295 296 294 296 294 295 291 294 288 293 291 291 291 291 294 289 294 293 294 296 295 295 296 296 294 294 295 296 298 298 298 299 300 301 303 302 302 303 309 303 306 301 298 295 299 298 298 297 297 296 299 299 296 297 297 297 298 298 299 297 293 292 298 293 289 301 301 299
302 301 301 300 301 301 301 301 301 302 302 302 300 292 296 289 295 296 300 291 287 289 290 295 295 296 295 292 294 291 289 288 286 293 295 295 298 294 295 297 297 296 296 296 292 296 295 297 294 298 299 301 304 300 303 300 306 304 301 305 301 297 291 300 301 299 300 301 300 300 298 298 297 297 298 297 298 299 296 296 298 298 292 290 301 304 300
301 301 301 301 301 300 301 301 301 301 301 303 300 290 296 296 296 297 301 290 295 294 295 296 295 295 295 292 293 291 289 287 289 290 292 294 293 295 288 292 296 297 298 296 294 296 293 290 298 299 296 298 300 299 299 301 304 303 301 302 303 298 294 299 299 298 298 299 300 300 298 297 297 297 298 298 298 298 298 299 301 300 298 302 304 303 302
301 301 301 301 300 300 301 301 302 302 302 302 297 295 291 293 292 292 298 298 296 298 297 295 294 292 294 289 292 291 291 290 292 294 291 288 293 298 294 295 298 300 300 299 295 299 301 300 294 302 298 298 299 300 299 298 302 301 300 301 303 298 295 300 302 298 298 300 301 301 300 301 299 299 299 298 299 298 299 302 302 305 305 305 304 300 296
301 301 301 300 300 300 301 301 302 302 303 298 296 296 300 300 300 298 293 292 294 297 297 294 294 291 294 290 293 292 292 292 295 295 297 295 293 296 296 297 298 301 299 298 299 301 301 301 301 304 305 297 303 300 301 303 299 299 299 301 304 301 296 303 298 292 295 300 300 300 299 298 299 300 302 302 301 300 302 299 305 301 301 303 300 295 291
300 300 300 300 300 301 301 302 302 302 303 298 298 296 304 302 305 303 298 291 294 295 298 296 295 289 294 293 294 293 294 297 298 290 298 298 300 300 300 300 298 298 296 297 299 302 303 304 306 307 305 308 306 307 304 302 300 298 300 302 298 299 298 294 293 289 291 301 300 297 297 296 294 294 299 302 304 304 304 305 305 305 307 300 295 298 296
300 300 300 301 301 301 302 302 302 302 302 299 298 298 299 296 294 298 300 290 294 297 296 294 295 295 299 297 296 296 297 297 297 290 290 298 297 301 300 300 300 299 299 302 306 306 306 307 308 306 305 307 305 306 305 303 303 303 301 300 299 299 299 294 298 288 290 299 297 301 293 285 286 296 301 302 303 302 301 300 302 303 306 301 302 298 297
300 300 300 301 301 302 302 302 302 303 302 303 303 300 302 302 300 299 294 289 290 298 296 293 292 296 296 299 299 295 296 297 298 299 296 297 299 302 302 300 301 293 303 309 309 307 307 308 308 307 306 306 306 304 305 303 302 305 306 301 298 298 297 293 296 291 291 297 298 290 284 285 294 299 301 302 304 303 301 301 303 303 302 301 298 297 297
300 300 300 301 301 301 302 302 302 302 303 304 303 299 302 304 298 295 295 293 290 295 294 295 298 297 298 300 299 298 298 298 299 300 299 298 299 301 303 302 300 300 306 307 309 307 302 301 302 302 301 303 304 305 304 304 304 305 303 304 303 295 293 294 292 294 294 293 292 283 284 292 298 300 302 304 304 303 302 299 300 302 302 301 298 298 297
300 300 300 300 301 301 301 302 302 302 303 303 301 301 303 303 297 295 295 291 290 296 297 297 297 295 298 300 298 298 299 298 299 300 297 300 299 299 303 304 303 306 306 307 305 302 297 297 293 295 294 297 297 297 300 302 304 303 304 304 303 300 297 294 291 296 289 289 289 288 293 293 295 296 298 301 299 300 300 291 295 301 301 299 295 294 294
300 300 300 300 300 301 301 301 302 302 302 302 303 302 302 303 301 297 298 295 290 294 297 290 294 296 299 298 297 296 297 297 297 295 299 302 301 302 303 304 306 305 307 306 301 301 295 292 288 288 288 288 285 288 298 295 300 305 304 305 304 304 296 298 293 290 293 289 286 288 287 285 290 298 304 306 307 307 305 299 294 301 300 299 296 294 294
300 300 300 300 300 301 301 301 302 302 302 302 303 303 303 305 304 301 298 296 294 288 293 297 298 295 298 298 298 296 294 293 295 296 297 298 299 302 304 305 306 307 304 301 301 296 292 289 286 287 285 287 292 289 289 295 295 301 305 303 303 304 302 302 296 291 291 291 287 286 284 288 295 299 302 305 306 307 308 300 292 299 300 299 298 295 294
300 300 300 300 300 301 301 301 301 301 302 302 301 302 302 306 304 301 299 297 296 291 299 299 299 291 299 298 298 297 298 295 298 292 291 294 298 300 302 304 306 305 303 301 298 294 291 290 290 291 292 294 287 287 294 293 291 293 301 304 301 299 297 296 293 290 292 290 287 286 289 287 296 301 303 304 307 305 304 290 290 298 300 300 298 296 295
300 300 300 300 300 301 301 301 301 302 302 303 302 301 302 307 307 304 300 297 294 295 300 300 299 298 299 298 296 301 303 301 300 300 297 298 299 299 300 302 299 303 305 296 296 292 291 290 288 288 288 296 297 296 287 293 290 290 293 295 294 294 294 294 291 293 292 289 289 289 290 297 301 301 303 304 306 304 291 287 293 300 301 301 300 298 298
299 299 300 300 300 301 301 301 301 302 302 302 303 304 304 307 307 306 301 298 298 292 299 303 303 300 302 304 303 305 304 302 301 295 294 294 298 301 302 302 304 295 300 295 296 291 291 290 296 293 289 292 296 289 298 291 290 295 298 294 294 293 292 293 294 291 290 291 289 288 290 296 301 302 303 305 301 289 290 297 304 302 301 302 301 299 299
299 299 299 300 300 301 301 301 302 302 302 303 303 298 302 306 308 306 300 296 297 296 298 300 300 299 304 302 300 299 301 300 300 298 295 293 301 302 299 294 300 302 297 301 291 296 291 289 292 297 291 291 296 297 294 294 300 296 296 299 292 292 289 290 290 292 291 291 288 286 284 291 303 302 301 303 293 293 300 302 303 303 301 300 300 299 299
299 299 299 299 300 300 301 301 301 302 302 303 302 300 301 308 307 308 306 301 297 292 299 304 303 303 304 303 305 304 303 300 301 299 301 302 304 301 290 290 296 298 293 294 290 291 293 291 294 292 299 295 295 297 290 292 295 300 300 295 297 299 291 289 293 297 288 289 286 286 294 298 303 303 293 299 301 303 304 302 299 301 301 299 299 299 299
300 299 299 299 300 300 301 301 302 302 302 302 302 302 299 305 306 306 305 303 297 295 302 305 305 305 308 307 307 308 306 305 306 309 306 298 304 302 300 302 301 301 302 303 298 294 298 299 300 293 292 294 297 292 296 290 288 296 301 300 289 299 296 297 291 295 292 290 290 295 300 301 304 304 302 303 304 305 305 303 301 299 299 302 300 298 298
300 300 299 299 299 300 300 301 301 301 302 302 302 301 299 301 304 307 305 299 302 304 306 306 308 309 309 309 309 310 311 311 312 311 311 305 297 302 302 301 300 304 304 306 300 299 298 298 293 298 295 296 293 293 295 295 292 295 291 299 297 301 303 304 298 292 296 297 297 298 299 300 300 303 304 304 304 304 304 303 300 301 302 302 300 300 299
300 300 300 300 300 300 300 301 301 301 302 302 302 301 300 303 304 304 303 301 300 297 304 309 304 298 302 303 307 311 310 310 311 313 317 313 300 298 302 304 304 305 304 305 307 303 301 299 300 301 293 299 299 293 289 289 291 297 295 294 299 300 302 301 295 296 295 287 297 296 297 299 300 300 303 304 305 303 304 302 302 302 302 301 300 299 299
301 301 300 300 300 301 301 301 301 301 302 302 302 303 304 303 305 304 301 294 297 296 292 295 299 304 307 309 310 309 309 312 314 314 314 316 309 303 302 309 313 307 303 306 309 304 299 294 296 296 291 301 302 291 299 293 293 300 292 295 296 295 304 297 298 297 293 290 294 297 299 299 301 301 300 300 301 302 303 303 303 302 302 302 301 300 299
302 301 301 300 301 301 301 302 301 301 302 302 302 301 301 301 306 308 305 304 304 301 293 293 300 308 309 307 305 307 310 311 310 311 311 310 311 313 310 311 309 312 309 309 308 301 298 296 295 296 295 295 304 295 294 300 298 301 298 293 301 300 302 292 297 291 292 295 295 295 297 297 299 300 301 302 302 301 301 301 301 301 300 300 300 301 299
302 302 301 301 301 301 302 302 302 302 302 303 303 302 302 304 309 307 305 306 302 296 297 295 299 303 306 304 306 309 309 309 310 310 309 310 310 311 311 309 307 307 307 305 306 300 299 298 297 296 301 297 302 301 300 298 298 294 294 299 302 299 294 297 294 290 289 289 291 295 290 288 294 297 300 301 302 301 300 300 299 300 299 299 298 298 299
302 302 301 301 301 301 302 302 302 302 302 303 304 304 307 307 310 310 310 309 304 296 295 296 298 302 307 303 306 307 308 309 309 309 308 309 310 311 310 309 308 306 304 301 295 297 297 296 296 296 296 302 298 295 302 300 300 297 297 297 299 297 297 297 293 292 292 298 298 300 300 297 296 298 300 301 302 301 299 299 299 299 299 299 297 296 296
301 301 301 301 301 301 302 302 302 303 303 303 305 307 309 312 313 312 311 311 310 305 300 300 304 302 296 300 306 306 307 309 309 308 308 308 308 309 309 308 307 306 306 302 299 299 297 296 298 299 298 303 301 294 296 290 291 289 293 297 299 300 302 301 300 300 300 301 300 301 298 295 297 299 300 300 301 300 299 299 299 299 298 298 298 297 296
301 301 301 301 301 302 302 302 303 303 303 305 306 307 304 307 311 312 312 311 310 307 299 295 292 294 306 305 303 304 305 307 307 308 307 306 307 307 307 307 306 307 306 300 299 295 297 297 296 303 304 306 298 295 291 293 290 291 295 297 299 301 301 301 302 301 298 301 300 300 299 298 300 300 300 300 301 300 298 298 298 298 298 298 297 297 298
301 301 301 301 302 302 302 303 303 303 303 305 305 298 296 294 304 313 309 311 311 307 301 299 295 299 298 304 305 302 303 304 305 306 306 306 306 306 307 307 307 306 299 299 298 297 298 295 295 297 302 301 297 295 294 291 289 290 294 296 298 298 299 300 301 301 300 299 299 299 299 298 298 298 298 298 299 300 299 298 298 298 298 298 297 297 297
300 301 301 302 302 302 303 303 303 303 305 305 303 303 303 305 309 309 309 308 310 307 300 294 293 294 294 298 303 305 304 304 304 305 305 307 304 306 306 305 300 305 299 298 298 297 296 297 295 299 298 301 298 295 296 294 289 288 294 295 297 298 299 299 299 299 300 299 298 295 295 296 298 295 294 297 298 299 298 298 299 299 298 298 298 298 298
301 301 301 302 302 302 303 303 303 304 304 305 305 304 304 303 304 306 307 310 310 308 307 296 292 293 292 297 303 303 304 305 303 303 299 305 303 305 301 306 305 303 304 299 295 293 299 296 295 294 299 304 294 294 293 289 290 294 295 296 296 297 297 298 299 299 299 300 300 295 293 294 295 298 298 299 298 297 297 297 298 299 298 297 297 297 297
301 301 302 302 302 303 303 304 303 302 303 305 307 309 312 306 309 304 311 314 311 308 301 295 290 291 292 301 297 300 304 299 299 301 294 302 304 303 298 301 302 295 299 298 297 297 297 295 295 294 298 294 297 291 286 290 294 294 295 295 296 296 297 297 297 297 298 298 299 299 298 298 298 298 297 296 296 297 298 298 298 297 296 296 296 297 297
301 301 301 302 303 303 303 303 306 308 308 306 306 311 310 300 303 307 309 313 305 295 295 295 296 291 290 292 291 297 304 301 297 299 294 297 305 299 299 295 295 293 293 304 296 296 293 295 300 293 292 298 292 287 288 290 292 293 294 294 295 295 295 294 295 297 297 298 298 297 298 298 296 295 294 295 295 296 296 297 298 297 296 296 296 296 297
301 301 302 303 303 303 307 308 307 307 305 303 307 309 303 305 305 312 313 315 309 300 293 292 294 291 292 288 289 292 303 298 300 300 298 296 298 301 299 295 290 294 301 296 292 297 292 298 296 290 294 290 287 291 291 293 292 293 294 293 295 295 295 295 294 296 296 297 297 296 297 297 295 294 295 296 296 297 297 297 297 297 296 296 296 297 297
301 303 302 302 305 306 303 302 306 308 306 308 306 305 303 308 316 317 315 310 313 310 300 293 293 294 297 291 294 294 300 291 299 296 297 294 291 295 295 292 289 292 292 292 292 291 295 301 294 289 289 287 288 294 294 294 294 294 294 295 296 296 296 296 296 296 295 294 294 294 294 294 294 294 294 295 295 297 296 296 297 297 296 296 296 296 297
303 303 304 305 302 296 296 299 307 312 305 303 305 307 308 305 298 300 300 300 301 304 297 300 293 297 300 297 290 299 300 293 300 292 292 296 293 291 294 292 291 292 286 288 292 299 295 293 291 288 287 292 294 295 295 296 296 297 296 296 296 297 297 297 297 295 292 291 290 292 293 294 294 294 294 295 295 295 296 297 297 297 297 297 297 297 297
303 306 304 303 299 295 296 307 313 305 308 309 309 300 296 298 296 292 293 296 294 294 297 297 293 297 297 295 295 302 299 293 292 295 290 296 292 287 293 288 289 291 287 287 289 299 289 290 290 289 287 290 291 293 296 297 297 298 298 298 299 298 298 297 297 295 293 293 293 294 295 293 294 295 297 296 296 297 297 297 297 296 297 297 297 297 297
307 301 296 296 296 300 309 310 306 308 308 299 300 297 291 295 292 289 296 292 292 293 295 292 299 299 300 295 294 293 302 299 292 291 291 292 299 290 291 292 291 289 285 285 287 298 288 285 289 289 286 289 291 295 296 297 297 298 298 299 299 300 300 298 297 297 296 296 298 298 300 299 298 296 295 295 295 294 295 295 296 296 296 296 297 297 297
301 302 300 296 303 304 308 308 310 306 299 295 294 293 292 289 293 294 292 290 290 290 298 298 298 296 298 299 298 293 299 305 302 301 294 290 297 298 290 286 292 287 285 284 289 292 289 288 288 288 288 292 293 295 297 297 297 298 299 299 299 299 299 299 298 299 300 299 299 298 298 297 297 296 296 296 295 295 295 295 295 296 296 296 296 297 299
299 298 301 303 303 306 307 306 301 296 295 295 290 287 290 290 293 292 292 288 289 292 295 298 292 296 294 300 298 299 296 302 298 294 293 288 292 290 288 290 291 287 283 288 293 290 289 285 286 287 291 295 296 297 297 297 297 298 298 299 299 299 299 299 300 300 299 297 296 296 297 297 297 297 297 296 296 296 296 296 296 297 297 299 299 298 298
300 299 302 303 304 301 299 293 295 294 287 287 286 284 288 286 288 288 289 292 298 295 295 304 301 301 302 303 299 301 297 302 296 294 292 288 293 292 289 287 287 283 286 294 291 287 284 284 285 289 295 295 297 297 297 297 298 298 299 299 299 300 300 299 298 297 297 297 297 297 297 297 297 297 297 297 297 297 298 298 297 298 299 299 298 298 298
306 305 302 298 294 294 295 284 294 290 287 289 286 281 285 284 287 290 288 290 294 293 298 295 297 297 290 296 297 293 294 297 296 294 291 293 291 287 287 285 285 290 296 290 288 285 285 287 290 293 295 296 297 297 297 297 298 298 298 299 300 300 298 297 297 296 296 297 297 297 297 297 297 298 299 298 298 298 298 298 299 300 299 299 298 297 297
298 296 294 291 289 292 289 281 293 288 283 286 288 287 287 284 288 290 290 294 296 295 298 299 297 297 293 299 298 297 295 292 295 291 286 291 288 289 287 285 289 291 288 285 286 286 286 286 293 295 295 295 296 297 298 298 298 297 298 298 298 298 297 297 297 297 297 297 297 297 297 297 298 298 298 299 299 299 299 298 298 297 297 297 296 296 296
294 292 290 286 282 288 288 285 286 284 289 291 289 292 292 293 293 293 298 298 297 298 296 298 297 299 294 296 293 292 294 294 290 290 291 291 287 284 289 293 292 286 285 286 284 283 285 289 291 294 296 296 297 298 298 298 298 299 298 296 297 297 298 298 298 298 297 297 298 298 298 299 298 298 298 299 299 299 299 298 298 298 297 296 295 295 296
294 294 293 290 285 288 291 285 286 289 292 293 295 296 296 297 298 298 299 299 299 299 300 300 300 298 294 293 293 293 294 294 289 290 292 287 285 287 291 288 283 285 282 282 283 285 288 291 294 297 297 297 298 298 298 298 298 298 297 298 297 297 298 298 298 297 298 298 298 298 298 299 299 299 299 299 299 299 298 298 299 298 298 296 296 297 297
290 293 293 284 283 288 285 288 294 295 296 297 297 297 298 299 298 296 298 300 301 301 299 298 295 297 294 298 298 291 292 292 288 289 291 288 289 287 285 284 284 286 286 285 286 290 292 294 296 297 298 299 298 298 297 297 298 298 298 297 297 297 297 297 297 298 298 298 298 297 298 299 299 299 299 299 299 299 299 299 298 298 298 298 298 298 298
295 292 288 287 289 290 290 293 293 292 294 296 297 297 298 297 296 297 299 301 301 300 301 299 295 294 290 293 292 290 288 291 286 286 289 288 285 281 282 281 282 283 286 289 291 293 294 296 297 299 299 299 298 298 298 298 298 298 297 297 297 298 298 298 298 298 298 298 298 298 298 298 299 299 299 300 300 299 300 300 299 298 298 297 297 298 298
292 291 291 290 289 291 294 295 293 290 294 295 295 295 297 296 296 299 301 299 301 300 300 297 297 293 292 291 288 289 288 291 289 289 287 285 285 286 285 282 284 285 287 292 292 294 297 298 298 298 298 298 298 299 298 298 296 298 298 298 298 298 298 299 298 298 298 299 299 299 299 299 299 299 299 299 300 300 301 300 300 298 298 298 297 297 297
295 293 292 295 290 289 292 288 288 289 291 293 294 295 296 295 296 297 300 301 300 298 295 292 292 291 290 288 287 284 286 292 288 286 286 286 289 287 284 283 286 291 293 296 298 298 298 298 298 298 298 299 299 299 299 298 298 298 299 299 298 299 298 299 299 298 299 300 300 294 299 300 300 300 301 301 301 300 300 299 299 300 298 298 298 298 297
291 288 289 292 295 294 294 295 295 294 295 296 296 297 298 296 298 300 302 301 298 294 291 294 292 289 287 285 287 290 292 289 287 288 286 289 290 287 286 289 292 295 296 295 297 299 298 299 299 298 299 298 299 300 299 298 298 298 299 299 299 298 298 299 299 299 299 300 300 300 300 300 301 301 301 300 300 299 298 298 299 301 300 299 298 299 299
Wind_Speed
11 10 9 8 5 5 5 6 3 4 5 6 3 2 4 5 4 3 8 12 16 12 9 9 10 12 10 10 13 10 7 9 6 7 7 9 1 6 7 8 9 10 9 9 12 17 10 13 13 14 15 16 6 14 24 19 19 17 13 15 12 0 5 10 11 11 12 14 16 18 19 18 17 17 16 14 15 17 14 12 12 12 10 12 7 6 5
9 6 5 3 4 4 6 2 3 4 3 5 5 5 5 5 3 3 7 13 14 10 9 10 10 10 12 13 9 8 9 7 7 7 7 4 4 6 6 8 9 10 12 12 9 13 8 15 8 10 11 6 13 19 21 20 15 15 12 11 13 7 8 11 10 9 12 14 16 16 12 12 14 14 14 15 16 19 14 13 9 7 13 12 7 7 5
4 1 4 5 3 3 4 3 3 5 3 5 4 3 4 6 1 2 7 10 10 10 9 8 6 11 12 11 10 10 9 3 5 5 6 3 6 6 7 10 9 9 10 12 10 12 13 9 15 8 14 9 9 10 15 17 14 14 15 12 11 9 10 10 10 13 15 15 17 18 17 17 12 15 19 20 20 21 16 12 7 6 10 15 9 6 10
3 6 7 3 1 4 4 3 5 5 3 5 5 4 4 4 3 4 6 7 8 10 11 8 6 9 11 9 8 10 10 5 1 3 7 6 6 8 11 12 12 12 13 12 12 11 12 9 10 13 8 7 9 13 16 16 15 14 6 14 11 8 10 11 7 10 13 11 11 9 12 12 16 19 20 20 20 18 17 11 9 9 9 10 8 16 14
8 8 5 2 2 3 4 4 6 3 3 4 5 5 5 3 3 4 5 6 9 9 9 8 9 8 6 6 8 11 10 1 2 1 3 2 7 8 10 10 9 8 12 12 12 14 15 6 6 9 12 8 8 14 16 17 10 16 7 9 9 9 7 6 4 2 2 12 16 16 19 18 17 19 19 20 19 18 18 11 10 10 6 8 12 23 19
6 5 4 2 1 3 4 4 4 2 4 6 4 5 4 5 1 2 4 5 7 10 9 12 10 10 7 6 4 6 4 3 2 1 7 8 8 8 6 14 15 15 11 11 9 11 13 17 9 6 5 10 10 12 15 18 8 6 13 12 10 9 7 5 1 1 3 3 10 14 16 17 18 17 13 14 15 11 10 10 9 7 7 2 14 18 20
6 6 5 4 5 5 3 4 4 4 5 5 5 4 4 4 5 4 2 2 5 8 7 11 11 9 6 6 5 5 5 7 8 5 2 7 9 14 9 11 13 14 13 13 10 14 11 8 13 7 1 7 6 9 16 16 11 10 12 11 8 8 5 6 8 6 4 5 6 12 16 13 14 14 15 14 11 11 8 4 3 2 8 15 10 16 18
8 7 6 6 5 3 4 5 4 5 7 6 6 6 4 2 4 3 5 7 7 4 5 7 8 8 7 6 6 5 8 10 8 9 9 6 11 12 16 15 11 11 10 11 14 15 7 10 4 10 15 6 9 7 11 12 14 14 13 11 11 10 5 7 9 6 7 5 8 8 11 8 6 9 9 11 11 13 13 6 5 14 12 17 20 20 14
7 7 6 6 5 4 5 5 6 6 7 5 5 3 3 4 4 5 6 6 6 6 7 8 8 6 8 7 5 6 9 10 7 10 11 13 10 9 15 13 8 9 13 13 8 7 8 12 13 15 13 10 8 8 9 11 14 17 13 10 7 10 4 5 7 7 7 8 12 11 11 11 8 8 8 9 9 10 8 5 5 4 11 14 16 13 9
9 7 6 5 5 6 6 7 7 6 6 6 4 3 0 3 4 6 5 5 4 7 6 8 6 5 7 7 6 5 9 10 10 4 7 5 4 5 7 4 4 3 3 4 3 9 8 12 5 6 4 6 9 5 7 14 14 12 11 11 12 12 9 7 6 6 3 7 10 15 16 13 7 5 7 7 7 8 11 11 11 8 8 10 4 6 11
8 7 7 7 7 6 7 7 7 8 7 5 3 3 5 4 5 5 5 6 4 8 5 6 8 1 2 7 4 7 5 3 5 1 1 1 4 4 4 3 5 8 8 6 6 5 8 9 8 8 9 5 6 3 4 13 13 11 10 10 10 13 8 7 9 6 5 9 7 9 10 13 6 3 1 6 5 4 9 10 11 15 8 7 9 15 16
9 8 7 7 8 8 8 8 9 10 9 7 6 4 2 3 6 4 4 6 6 7 6 1 2 2 5 4 6 7 4 3 6 5 2 2 3 5 4 2 5 4 1 4 5 8 10 8 8 11 10 8 10 7 6 11 10 9 7 9 12 13 10 8 11 5 5 6 7 7 10 4 2 4 1 3 5 10 15 14 13 14 14 16 18 17 17
9 8 8 8 8 9 9 10 10 11 10 8 6 5 4 4 4 5 5 7 6 7 4 5 7 3 1 3 6 3 0 7 6 5 3 2 8 7 3 5 7 9 3 8 4 13 9 10 9 11 12 9 10 7 10 8 7 7 12 11 8 9 10 7 8 7 4 5 8 9 4 3 2 4 4 3 7 10 14 14 12 10 11 14 17 17 16
10 9 7 7 8 9 10 10 10 11 12 10 7 5 4 5 4 5 4 4 6 8 6 1 3 2 3 3 3 2 5 5 5 2 3 3 9 9 4 4 1 1 5 4 6 10 8 5 4 4 5 5 3 3 6 5 5 4 5 10 11 13 12 7 8 6 6 6 5 4 8 7 5 6 5 8 8 8 2 5 6 7 9 12 16 16 16
11 9 8 7 7 8 9 11 11 11 11 12 6 6 5 3 4 4 5 4 6 9 2 2 5 6 2 4 2 4 4 8 6 3 5 7 9 9 8 6 1 2 5 5 5 5 6 5 4 5 2 2 3 3 4 7 6 5 1 4 2 4 2 6 4 4 6 9 7 6 4 5 6 6 7 4 6 7 8 12 9 6 9 12 14 16 16
11 10 8 8 7 8 10 10 11 11 11 12 7 5 4 3 5 6 6 5 7 3 3 6 6 5 2 5 2 3 5 3 5 6 6 7 10 10 10 10 7 5 2 3 4 4 1 2 6 5 4 3 2 3 1 7 5 3 4 6 3 5 3 8 6 6 10 7 8 7 6 2 2 8 6 5 2 4 2 3 7 6 9 11 14 16 15
11 10 8 7 7 8 9 10 10 11 11 11 8 6 4 3 4 5 6 4 4 5 5 5 6 4 4 2 4 4 5 1 4 4 4 6 9 9 9 7 5 7 3 9 6 4 5 5 5 6 7 11 7 3 6 2 4 3 8 12 13 11 5 5 5 6 8 7 7 4 4 1 3 7 7 7 4 2 4 5 5 9 11 12 14 15 14
11 10 9 7 7 8 9 9 10 11 11 11 8 6 5 4 5 5 5 6 5 3 4 5 2 3 0 5 7 10 4 3 2 3 3 7 8 7 9 7 7 4 4 3 5 5 6 6 6 5 7 5 5 12 6 10 7 6 6 7 8 8 9 7 5 4 5 6 6 5 3 4 6 6 4 6 1 3 4 4 8 12 12 12 13 14 14
10 10 10 9 7 9 9 10 10 11 11 11 9 7 3 2 4 5 4 6 4 2 7 6 2 6 9 10 7 10 1 3 5 2 3 3 4 5 2 4 5 4 6 2 5 3 3 3 3 4 5 4 6 4 8 6 3 3 3 7 4 3 2 3 5 6 6 6 6 4 5 3 5 4 3 2 4 3 2 8 11 14 14 13 13 15 14
11 10 10 9 9 9 10 10 11 11 11 12 8 5 7 6 4 4 5 6 4 5 7 7 3 7 6 7 5 4 3 2 7 2 1 2 3 6 4 5 5 1 2 2 2 2 2 5 3 2 5 4 4 3 4 5 4 3 2 4 1 3 1 4 3 2 2 5 7 7 4 2 5 7 5 2 2 5 7 12 13 13 14 15 14 12 12
11 11 10 9 10 10 10 11 11 11 11 12 9 6 6 1 2 2 3 4 4 5 3 3 5 5 6 7 7 9 8 7 8 7 7 4 5 3 1 2 3 1 2 1 2 4 1 3 4 2 3 1 6 5 3 4 5 4 6 3 6 7 3 2 4 6 2 5 3 4 6 9 3 5 2 6 8 10 11 12 13 13 13 13 12 11 11
11 11 10 9 9 10 10 11 11 11 12 12 13 7 6 1 1 2 3 3 5 6 5 10 9 9 6 5 5 5 7 8 8 6 6 2 2 3 3 2 5 4 3 3 2 1 3 1 2 2 4 4 3 3 8 5 4 5 4 4 2 9 5 6 5 7 5 4 5 7 8 8 7 9 10 9 11 11 12 13 13 13 11 12 12 13 14
13 11 10 9 9 10 10 11 11 12 12 11 9 6 7 7 4 2 4 5 7 9 8 8 8 9 9 6 3 5 4 5 6 6 6 7 1 0 3 3 4 4 2 4 5 5 1 3 2 2 4 2 2 5 5 2 4 6 3 7 7 4 5 5 9 10 15 14 10 7 9 9 9 8 8 11 12 12 12 13 12 11 12 11 13 15 16
13 12 11 10 9 9 10 11 11 11 12 11 9 7 7 6 7 5 4 6 4 6 5 6 3 4 6 7 6 6 6 6 7 5 3 4 4 1 4 4 4 2 3 5 5 6 4 3 3 2 2 3 2 4 4 3 3 6 6 5 4 4 1 1 7 11 4 5 5 10 11 10 10 9 10 11 11 12 11 11 12 12 13 14 14 15 16
14 12 12 11 11 11 10 11 11 11 12 12 10 8 8 8 6 5 5 3 1 3 1 4 5 5 6 6 7 7 7 4 3 4 2 2 3 6 5 4 5 5 5 4 2 2 0 0 2 2 2 3 5 2 5 3 4 3 4 5 5 5 3 6 9 6 2 7 9 8 9 9 10 9 10 12 12 12 12 12 13 14 15 15 16 16 15
15 14 12 11 11 11 11 12 12 12 12 12 11 8 6 6 4 3 5 7 7 4 0 5 7 6 6 8 10 9 7 7 7 7 6 6 6 5 4 2 1 2 2 1 2 3 0 0 0 1 3 3 4 1 3 7 6 3 3 5 7 5 3 1 7 7 10 11 11 9 10 10 9 9 9 9 12 13 15 15 16 16 17 17 16 14 15
16 15 14 12 12 11 12 13 13 13 14 13 9 8 7 7 6 4 5 5 6 3 2 5 5 8 9 12 9 8 9 8 7 7 7 7 6 4 3 2 2 2 1 2 2 2 1 2 2 4 4 5 2 5 3 5 6 6 7 6 2 3 6 9 7 7 7 8 10 15 8 7 8 10 10 11 13 15 16 16 16 16 17 16 17 17 16
16 16 16 14 13 13 12 13 13 14 14 14 11 9 8 8 6 4 4 5 5 3 2 4 4 6 6 12 10 10 10 9 8 8 8 8 8 6 3 3 2 1 2 1 2 2 0 2 4 2 2 3 2 4 5 6 4 6 7 6 9 5 5 4 3 4 5 10 16 9 8 13 11 11 12 13 13 14 16 16 16 16 16 17 18 19 18
17 17 17 16 14 14 13 13 14 14 14 13 9 9 8 8 6 4 4 3 5 5 4 4 3 3 4 7 6 9 10 9 9 8 8 8 8 7 7 6 4 3 3 4 3 3 5 6 4 3 3 4 3 5 3 3 3 5 6 5 3 5 6 10 11 16 15 15 13 9 11 12 14 13 13 13 13 14 16 15 15 16 17 17 17 17 19
17 17 18 17 17 14 14 13 13 13 13 8 7 5 4 4 4 4 4 3 4 3 2 4 3 3 2 4 7 7 9 9 9 10 10 9 8 7 7 5 5 5 4 2 2 3 4 3 3 4 3 5 3 3 3 5 6 4 3 1 3 4 7 8 6 4 11 11 10 12 15 16 14 14 13 12 13 14 14 16 16 17 17 17 17 16 16
18 18 19 20 18 16 14 14 12 12 12 7 6 3 2 3 4 3 3 3 4 4 4 1 4 3 3 3 4 6 7 8 7 8 9 8 7 7 6 5 6 3 3 3 3 4 1 3 3 3 2 6 4 3 3 4 4 4 4 3 4 4 5 7 8 12 13 14 15 16 16 15 14 14 13 13 13 15 15 15 16 16 17 17 16 16 15
18 20 20 21 20 17 15 14 12 10 7 6 6 3 4 4 3 6 3 3 5 5 3 4 3 2 2 2 3 3 4 2 5 5 6 4 7 5 8 6 6 7 6 4 3 3 4 3 2 4 4 4 5 0 3 4 6 7 5 5 6 6 7 9 11 12 14 15 17 17 15 14 13 13 13 14 15 15 16 17 18 18 17 17 16 16 16
19 20 21 21 20 19 16 15 12 8 6 9 15 15 15 16 14 10 6 5 5 5 5 0 2 1 1 5 3 3 4 5 2 2 6 5 5 2 4 4 5 5 3 1 2 2 3 4 3 3 4 5 1 5 9 7 8 9 7 7 7 8 9 9 11 11 12 13 11 13 15 14 14 16 18 17 17 17 17 18 18 17 17 18 18 17 16
20 21 21 21 19 18 16 14 14 12 12 7 4 4 4 4 6 7 5 5 4 4 3 1 2 2 3 2 2 5 5 3 3 2 3 3 3 1 3 3 4 2 5 3 3 3 2 2 3 4 3 4 5 4 4 6 10 9 9 9 9 9 10 11 11 11 10 9 10 14 16 17 17 16 17 17 17 16 16 16 17 18 17 17 16 16 16
21 21 20 20 18 14 16 14 7 5 5 4 3 5 5 3 5 3 7 5 4 2 1 1 1 2 3 3 1 5 3 4 3 4 2 2 4 4 2 1 1 1 2 2 2 3 2 2 1 2 3 5 2 2 2 9 9 9 9 10 10 11 12 12 10 10 11 13 15 16 18 19 19 17 16 16 15 15 15 15 16 17 17 15 15 15 14
20 19 18 17 16 12 8 6 5 4 4 2 3 7 4 5 7 5 6 5 3 5 2 2 2 2 2 2 2 2 4 3 2 2 4 1 4 2 3 2 3 4 2 2 3 2 3 0 3 3 2 3 5 3 6 10 10 10 10 10 10 10 10 12 14 14 15 15 17 17 18 18 19 18 16 16 16 16 16 16 16 16 16 16 16 15 14
19 15 15 14 7 3 5 2 3 1 3 5 9 13 12 5 4 4 5 4 5 5 4 1 5 3 5 5 1 2 5 2 2 1 2 1 2 1 0 2 4 1 2 3 3 2 3 3 4 7 6 5 4 6 8 8 9 10 10 10 9 9 12 13 16 18 19 19 19 16 16 18 17 15 15 15 15 15 15 15 15 15 16 16 15 13 14
16 12 5 3 3 3 3 1 2 3 6 9 7 4 4 4 2 3 3 4 3 4 1 5 0 4 3 3 3 3 4 3 4 1 2 1 2 3 0 1 2 1 2 2 3 2 3 2 3 6 5 5 6 6 7 8 8 8 9 9 10 12 14 16 19 20 21 20 19 20 19 17 16 15 15 16 16 16 13 13 12 12 13 14 14 15 15
10 4 4 3 4 2 1 2 4 5 6 5 4 3 3 1 3 2 0 1 1 2 1 5 3 2 3 2 5 2 4 2 2 2 2 3 1 2 1 1 2 1 3 2 4 6 1 3 4 5 6 5 7 7 7 9 9 9 9 10 12 14 15 15 16 18 17 15 16 16 14 15 17 17 16 15 14 13 13 13 13 12 12 12 12 11 12
3 5 2 5 2 2 4 2 2 6 4 3 2 2 2 1 2 2 2 3 2 2 1 1 3 2 4 1 4 4 1 3 2 2 2 3 2 1 2 1 2 1 1 1 4 3 1 3 3 5 5 5 7 7 8 8 9 9 11 12 14 16 17 16 14 11 12 15 16 15 14 14 14 13 13 13 13 13 12 11 12 12 12 12 12 12 13
6 5 4 2 5 5 5 8 5 3 3 3 2 1 1 2 2 1 1 5 2 2 2 2 4 3 3 3 2 3 4 3 2 3 2 3 1 3 0 2 0 0 2 3 1 1 2 2 3 4 6 7 8 8 9 9 10 12 12 14 14 14 16 16 15 16 17 16 14 13 14 16 16 15 14 15 14 13 13 12 12 12 13 13 13 12 12
6 5 6 8 8 7 7 3 3 3 0 2 2 2 2 1 1 3 2 3 3 2 5 5 4 4 5 2 4 3 3 3 2 1 1 2 0 2 2 0 1 0 2 2 2 2 2 2 2 6 6 9 10 10 11 11 12 13 14 15 15 15 16 15 14 14 13 14 14 15 14 14 14 13 13 13 12 12 12 12 13 14 13 12 11 12 12
13 10 6 5 3 3 2 4 3 1 2 1 2 1 2 3 3 4 4 2 2 2 4 1 3 3 5 2 4 4 3 1 2 0 1 2 1 1 0 0 0 2 2 2 2 2 2 3 3 6 9 11 11 12 12 12 13 14 15 14 14 14 15 15 16 16 16 15 15 14 14 14 14 13 12 12 12 13 12 12 13 12 10 11 12 11 11
4 3 3 2 2 1 1 3 2 1 2 3 3 4 3 3 3 2 2 3 5 4 5 6 6 6 4 1 1 3 2 3 2 1 2 1 1 2 0 1 3 3 2 2 1 3 2 3 4 10 11 11 11 13 13 13 14 14 14 14 14 14 15 16 16 16 16 15 14 14 14 14 14 13 12 12 12 13 12 12 11 11 11 12 12 12 12
3 2 2 1 1 1 1 1 2 3 4 4 3 4 4 6 3 5 4 4 5 4 6 5 6 6 4 4 1 2 3 2 1 1 1 0 1 2 1 2 1 2 2 1 2 3 2 4 8 12 13 13 13 14 14 14 14 14 14 15 16 16 16 16 16 15 15 14 15 14 13 13 13 12 12 12 12 11 11 11 12 12 12 12 13 13 13
3 3 3 3 1 3 3 2 2 4 4 4 5 7 7 8 6 6 4 3 4 5 6 6 7 4 4 4 3 1 2 2 2 2 0 0 1 2 2 1 1 0 1 1 2 2 5 7 8 11 14 15 15 15 15 15 15 14 15 16 16 16 16 16 15 15 14 14 14 13 12 12 12 12 12 12 11 11 11 12 11 12 12 13 13 14 14
2 2 2 3 4 3 3 4 5 4 5 6 7 8 7 6 6 2 4 4 3 5 5 5 5 4 4 4 2 2 1 0 2 1 2 0 1 2 0 1 0 1 1 1 1 1 5 9 10 13 15 16 16 16 16 16 15 15 14 14 15 16 16 15 15 15 14 15 14 13 12 12 12 11 11 11 11 11 12 12 12 12 12 12 13 12 12
3 2 4 4 4 4 8 5 5 7 6 7 7 9 7 3 4 4 4 4 3 5 7 7 4 4 4 2 4 2 3 2 2 1 1 2 1 0 0 1 1 1 1 2 2 3 7 10 12 14 15 15 16 16 15 14 15 16 15 16 17 17 17 16 15 15 15 15 14 13 12 12 11 11 10 11 11 11 11 11 12 12 12 12 11 11 11
2 2 3 3 3 4 5 8 8 7 6 8 8 8 6 5 7 5 6 4 3 5 6 5 3 3 2 3 2 2 2 3 2 2 1 2 1 2 2 1 0 1 1 2 3 4 8 10 13 15 16 16 15 14 14 14 15 16 16 17 17 17 16 15 15 15 15 13 13 13 12 12 11 11 11 10 10 11 11 11 12 11 11 12 12 11 10
3 3 2 4 4 6 6 8 9 7 8 8 8 8 8 7 8 4 4 5 6 6 6 4 3 4 2 2 2 2 2 2 1 2 2 2 2 2 1 1 1 1 3 1 3 5 9 11 13 15 15 16 16 15 16 15 16 15 15 16 16 16 15 16 16 16 14 13 13 12 12 11 11 10 11 11 10 10 11 11 11 11 12 12 12 11 10
3 3 5 7 6 5 6 9 9 8 8 10 9 8 8 9 9 8 6 5 6 4 4 4 4 2 3 3 1 2 1 1 2 3 2 3 2 2 2 2 4 0 4 5 5 7 10 12 12 13 15 16 15 15 15 17 16 16 16 16 16 15 15 16 16 15 14 13 13 13 12 11 10 10 11 10 11 11 11 10 10 10 11 11 11 11 11
4 5 6 7 9 10 8 8 7 9 8 7 8 8 8 9 8 6 7 6 6 6 6 4 4 3 2 3 3 1 2 2 2 1 3 1 1 2 2 2 4 3 5 5 5 7 9 10 12 15 15 15 16 16 16 17 16 16 16 16 16 16 16 15 15 14 13 12 12 11 11 11 11 10 11 12 12 11 11 10 10 10 10 10 10 11 11
Wind_Direction
288 291 293 278 248 175 229 248 241 275 270 264 255 269 246 227 257 98 192 168 175 192 212 201 212 223 229 227 232 224 218 248 232 254 243 256 227 276 263 257 263 252 263 248 240 199 199 176 183 191 191 177 193 178 194 187 186 192 186 199 167 234 216 189 201 194 188 197 177 203 209 192 197 206 222 204 206 207 208 207 205 213 217 229 188 203 130
297 292 272 236 138 139 255 237 277 288 282 298 310 269 256 248 247 179 192 188 197 212 209 200 211 220 223 230 235 224 239 217 214 238 254 253 272 265 259 269 251 262 256 240 252 213 203 190 166 205 165 158 177 190 189 180 191 192 172 205 154 196 209 201 180 190 189 194 182 193 199 220 207 198 205 216 210 208 223 230 211 219 220 220 225 179 149
309 225 139 131 139 199 234 261 294 289 276 290 306 282 289 295 263 38 160 188 202 220 231 236 222 212 225 225 223 224 229 233 274 286 249 193 262 277 263 255 272 270 258 260 265 240 226 180 178 217 157 176 171 178 190 185 192 193 171 214 152 215 190 205 195 192 181 181 189 185 184 200 205 206 196 215 213 201 204 220 178 227 227 207 207 113 119
101 118 119 132 189 251 256 284 285 292 278 290 276 271 276 235 236 147 162 187 206 244 259 281 283 263 221 220 233 239 237 164 230 278 281 290 277 261 275 286 285 272 266 258 246 242 202 212 154 203 116 143 183 187 204 195 193 177 136 195 166 208 202 208 229 226 193 189 195 186 187 188 206 200 200 202 211 203 212 216 206 205 221 220 218 137 140
121 123 137 192 212 269 281 283 294 286 264 278 298 282 257 332 248 150 163 183 221 232 226 235 242 255 263 239 214 229 232 265 357 139 257 256 241 254 247 258 257 254 243 245 234 215 174 149 217 165 131 141 204 184 196 197 183 109 145 201 178 199 199 179 95 348 244 194 189 192 196 196 201 202 205 206 206 202 202 200 208 208 225 215 118 144 142
110 102 93 76 50 305 294 315 307 276 273 304 289 283 238 249 31 329 200 228 187 204 222 222 221 232 226 226 214 245 208 150 240 268 231 263 261 246 231 233 239 246 251 224 229 256 190 171 187 130 126 154 183 180 191 194 109 186 178 187 210 193 192 173 204 118 127 3 191 190 200 201 198 206 202 208 204 213 219 196 220 231 239 185 142 143 141
59 54 32 18 334 307 338 346 311 304 300 297 287 287 258 270 306 266 236 252 260 216 213 213 220 225 218 231 197 215 196 222 217 217 281 236 241 232 246 250 248 235 224 221 227 232 175 179 176 134 59 159 179 185 174 187 162 189 186 181 197 213 178 175 206 156 134 198 194 183 200 203 201 189 196 213 209 206 212 169 80 292 107 112 123 117 127
28 16 7 340 317 4 350 345 335 320 317 290 269 247 285 305 335 1 305 265 274 269 237 228 214 218 211 240 209 217 217 233 223 218 228 254 261 227 232 240 233 234 244 236 221 207 183 139 131 138 163 194 208 185 180 164 178 189 188 184 167 225 127 177 139 113 123 168 181 181 171 128 133 164 184 198 213 211 204 139 126 90 109 110 116 108 99
11 1 355 337 349 10 349 345 342 334 321 284 248 252 236 305 307 311 308 286 231 226 218 217 209 210 193 217 181 203 223 232 232 238 244 231 244 214 215 226 258 257 215 217 227 236 176 145 156 212 167 169 168 176 167 172 175 190 180 183 139 220 147 186 196 163 149 171 177 149 157 158 146 124 123 146 152 152 122 102 55 167 136 129 114 121 131
3 359 355 4 9 1 356 349 344 327 310 277 284 286 311 293 282 265 276 267 251 257 186 224 216 219 194 212 155 197 219 232 202 254 248 226 239 207 199 155 220 190 187 71 328 295 130 166 167 102 67 83 145 203 201 182 179 180 181 167 183 202 169 176 203 191 146 160 166 163 152 130 132 105 58 58 89 92 89 85 58 37 149 142 182 104 137
9 9 18 20 12 9 3 355 350 355 329 323 316 330 3 -0 321 309 270 272 245 243 219 204 231 57 312 184 175 186 234 277 6 275 57 89 144 177 171 247 188 111 95 51 2 228 96 101 137 146 130 195 124 127 158 175 180 178 183 168 190 198 204 191 195 186 169 184 161 143 161 188 159 51 29 330 93 105 99 73 60 50 58 75 84 122 132
16 13 23 18 14 11 4 3 3 6 345 314 307 301 23 324 301 288 288 261 260 238 231 171 39 211 208 152 189 173 246 311 282 218 290 73 100 89 161 62 105 121 309 10 287 139 122 130 120 110 105 92 118 150 142 158 167 168 176 182 190 186 184 209 200 183 163 178 150 166 204 146 47 233 359 332 63 89 92 80 72 88 91 101 107 121 134
14 14 17 15 14 6 4 2 5 359 354 332 318 306 352 -0 312 315 297 283 284 275 231 127 144 213 166 215 149 115 294 272 257 259 48 73 107 120 143 100 93 109 139 294 207 120 116 108 88 84 66 51 41 74 103 110 127 164 182 195 182 182 185 204 208 173 155 174 181 182 132 74 193 138 153 121 124 111 93 74 67 79 99 115 120 125 123
8 6 10 18 11 4 357 4 358 0 349 343 316 317 323 312 329 302 308 305 289 281 8 312 127 198 174 144 131 298 265 253 236 234 95 63 107 131 206 99 132 291 282 281 104 98 84 54 71 63 37 29 46 68 111 104 55 112 187 169 194 186 195 206 191 180 176 179 182 79 124 126 142 146 157 171 149 183 195 124 83 81 100 116 119 120 121
9 4 2 3 6 354 355 354 354 351 348 339 319 308 282 254 252 277 311 293 297 312 302 11 353 334 250 143 204 305 241 160 168 149 111 103 102 110 117 117 235 289 338 3 56 57 72 81 69 97 40 115 167 182 305 167 163 120 65 72 53 345 181 194 155 174 186 185 134 157 160 189 177 203 137 29 16 49 98 110 103 91 107 129 132 131 131
6 5 4 3 356 352 352 351 348 346 344 340 313 311 282 255 254 262 277 291 311 282 61 354 332 306 264 164 265 314 309 128 127 135 122 110 112 133 137 155 201 229 225 38 15 71 64 117 139 147 140 158 130 85 263 165 161 68 109 112 9 26 326 246 181 162 188 189 191 178 170 75 79 137 152 160 204 192 154 160 107 118 129 139 140 135 136
1 356 1 356 355 347 350 347 343 347 340 340 328 319 300 209 253 297 311 299 268 295 338 11 49 1 293 158 267 256 246 165 140 133 143 141 141 137 142 149 189 206 195 157 169 164 177 195 169 149 132 127 132 202 140 159 122 172 161 165 166 181 181 212 191 183 192 176 187 136 48 92 125 130 149 164 67 19 255 208 154 145 139 141 140 140 141
357 351 347 358 353 347 345 349 349 343 341 343 328 318 297 298 286 292 277 277 297 285 36 2 314 187 194 31 315 295 230 173 185 114 142 147 147 148 131 168 161 120 285 176 181 182 165 183 167 159 147 163 131 156 157 158 155 171 169 186 166 179 168 185 183 183 151 147 95 98 108 72 117 127 142 72 271 230 200 204 116 145 136 140 137 135 138
353 348 345 351 349 344 344 349 345 342 348 347 338 302 272 319 297 270 281 278 287 296 343 334 320 283 286 284 223 261 31 272 271 148 130 138 64 36 107 63 324 157 205 138 219 193 175 98 311 139 152 158 184 124 141 155 145 357 288 176 153 159 161 164 170 187 173 176 142 106 84 81 112 131 121 82 224 203 138 85 123 130 134 133 134 133 137
348 342 339 342 343 340 341 341 341 346 344 349 340 316 297 296 314 300 286 294 314 311 287 284 294 300 329 360 -0 336 358 220 349 329 172 101 159 218 176 153 185 136 163 215 169 325 231 172 170 154 158 147 113 62 76 85 46 67 23 17 307 37 275 190 163 72 145 186 136 159 158 171 203 156 162 16 285 87 113 124 118 124 122 129 129 131 132
347 341 330 334 337 335 333 333 338 342 343 344 341 321 321 128 297 329 282 275 296 296 226 86 333 307 337 2 5 352 6 5 352 358 3 63 23 303 189 106 100 210 128 191 206 161 280 145 180 157 24 184 126 214 146 119 121 53 12 39 55 3 269 186 77 3 235 195 173 76 71 117 71 251 141 75 83 124 124 126 123 123 124 122 123 121 125
348 344 334 331 330 329 325 328 339 335 339 342 333 308 290 81 110 349 296 265 253 251 306 319 302 283 297 340 348 352 354 354 354 342 332 334 138 4 36 41 47 25 19 347 157 92 227 42 32 142 171 104 179 182 139 162 169 119 83 326 185 15 55 14 62 27 28 46 95 109 87 95 89 85 103 106 112 122 124 120 126 128 128 131 126 125 124
346 345 341 335 328 322 322 325 330 326 324 331 321 308 308 310 315 50 279 255 249 252 267 268 263 256 243 234 294 357 9 359 350 343 8 335 185 210 13 19 71 7 34 11 6 330 125 168 202 167 146 136 145 129 185 288 110 148 129 45 75 78 64 104 92 84 89 72 77 97 98 92 89 94 99 108 109 106 120 122 123 128 128 132 129 131 129
341 341 339 337 325 324 324 319 316 314 310 311 311 303 300 306 307 302 258 249 278 300 229 230 235 56 35 37 30 50 19 40 11 3 1 344 343 124 148 43 12 225 59 20 339 345 18 359 39 332 143 58 301 169 164 148 124 109 113 131 86 88 109 70 95 156 180 83 113 102 103 103 91 100 97 90 104 111 117 119 119 123 123 121 124 127 131
337 335 333 330 327 326 324 319 311 305 303 300 296 275 273 275 264 250 279 311 286 300 51 71 52 24 70 39 53 38 32 17 45 29 38 332 353 349 29 27 360 5 24 4 302 255 139 251 166 204 121 70 320 164 52 132 130 184 129 108 146 129 271 103 107 95 44 116 129 109 102 114 116 112 115 114 109 113 115 118 117 118 122 123 124 128 126
332 331 329 325 325 323 323 317 315 305 299 296 291 283 287 281 281 241 266 256 259 266 316 86 80 70 57 59 44 35 19 31 32 53 44 54 41 36 81 143 101 13 353 313 300 293 107 280 67 72 131 109 319 315 85 14 111 65 71 76 19 83 209 135 110 96 97 109 115 118 104 92 107 116 113 119 120 117 117 118 121 122 122 123 123 122 124
327 327 324 323 319 324 320 315 311 305 299 297 290 278 268 264 260 247 263 332 316 208 199 97 94 75 64 56 42 35 32 36 35 37 44 35 68 85 70 41 81 135 180 107 347 340 14 45 51 57 27 82 34 72 122 126 102 96 90 87 49 168 119 96 101 126 156 170 163 152 133 135 123 124 122 118 120 121 121 123 123 125 124 124 123 121 122
323 322 321 317 319 319 318 311 307 305 301 297 284 273 260 259 251 246 254 259 288 355 21 117 107 79 55 54 38 40 32 37 32 45 44 53 49 47 64 70 0 80 118 187 174 204 161 123 89 93 82 92 166 109 98 88 115 120 119 72 11 33 101 184 169 206 175 146 154 178 100 121 129 129 127 126 124 125 127 127 125 123 124 126 126 127 126
321 319 316 315 313 314 312 310 305 301 303 299 281 278 257 236 244 214 230 248 270 279 282 112 102 75 49 46 33 50 48 41 49 44 50 54 62 63 55 45 65 70 49 36 49 63 67 64 28 45 56 14 313 123 134 138 121 100 67 6 31 52 47 63 65 67 85 123 143 117 124 132 133 131 127 126 128 125 123 124 124 126 128 128 125 128 128
319 317 313 309 309 308 309 305 301 297 302 293 285 267 249 160 197 215 200 220 247 280 270 137 112 84 68 41 53 50 55 53 52 49 50 52 51 48 55 64 63 38 52 55 68 81 71 73 76 74 56 352 322 136 217 130 98 84 57 75 91 91 58 26 352 103 118 117 107 112 121 122 125 125 123 124 128 127 125 127 129 128 127 127 127 127 129
317 313 310 307 307 307 306 305 300 307 297 281 288 275 185 130 106 151 163 215 271 278 288 111 97 118 93 49 22 43 65 57 54 52 56 52 47 50 53 58 52 54 98 70 65 58 119 110 98 90 87 30 -0 240 170 134 113 107 123 111 93 76 68 70 83 90 96 102 112 115 117 117 120 118 117 121 123 126 124 124 125 124 125 126 126 128 127
318 313 308 307 306 308 307 302 305 301 282 278 300 352 4 351 16 15 12 266 279 259 248 141 140 129 79 100 68 335 31 24 93 76 57 21 67 53 67 52 62 40 38 74 91 86 48 34 101 119 118 9 297 267 132 146 132 127 124 114 91 90 101 112 111 113 118 123 125 121 119 124 131 130 129 135 130 127 127 127 128 127 127 125 125 127 127
315 310 307 305 306 306 305 299 294 284 278 304 309 284 272 268 272 268 253 264 248 255 267 240 81 100 149 89 145 74 356 267 137 50 67 358 65 57 69 82 84 75 350 159 54 79 104 104 124 96 47 304 75 59 52 72 106 128 131 111 114 117 119 119 122 126 132 140 144 134 133 131 127 126 127 128 127 127 129 130 130 130 129 128 128 129 130
312 309 306 304 302 304 300 296 289 277 267 257 247 173 158 190 226 210 255 230 279 271 260 134 185 161 98 102 248 96 309 330 54 1 90 43 338 304 83 90 46 66 7 41 118 121 122 128 98 94 107 70 80 93 93 101 122 128 120 117 117 123 125 127 130 132 133 128 124 121 121 122 123 124 124 124 127 128 129 131 133 131 130 129 129 130 131
311 307 304 301 299 298 296 288 289 236 264 251 109 87 108 138 337 234 207 255 276 190 104 283 188 148 170 187 182 91 309 296 74 22 64 68 319 53 68 34 48 65 63 289 77 71 75 68 327 183 102 135 106 81 122 144 138 129 128 131 134 132 134 128 121 124 125 125 123 123 124 125 124 126 128 131 134 137 135 134 134 132 131 131 132 133 136
309 304 300 299 297 291 276 225 218 254 216 128 67 117 130 262 210 222 218 248 259 298 185 157 234 163 209 169 129 104 249 95 98 107 69 138 108 3 86 101 109 61 12 345 97 119 99 58 252 106 124 104 38 45 133 145 139 139 137 139 143 142 136 131 130 127 126 127 127 128 129 130 128 130 133 134 135 138 139 137 137 135 133 135 139 141 141
303 301 301 291 275 221 255 233 158 39 4 327 302 313 301 278 189 191 204 224 214 198 279 242 231 111 11 68 88 113 249 146 203 106 75 97 67 10 70 106 81 126 149 98 90 84 85 349 62 67 50 71 86 92 121 139 144 142 142 145 144 138 135 133 133 129 126 126 124 125 130 130 128 131 132 134 135 134 138 142 145 144 144 143 141 144 142
308 298 288 252 228 248 219 167 18 5 332 291 277 262 174 223 203 188 193 219 131 246 192 272 88 106 230 259 105 89 275 96 275 122 105 69 193 96 12 65 78 247 96 92 84 35 79 66 75 88 90 84 101 118 126 133 131 133 134 138 138 140 138 140 139 133 129 130 131 135 136 137 138 145 148 145 149 156 149 142 143 142 138 141 142 143 145
288 265 234 253 243 253 33 26 10 338 281 265 240 244 176 207 214 196 199 61 227 218 54 273 111 204 187 133 86 90 332 328 176 197 139 95 311 102 261 145 133 244 122 159 111 257 163 108 117 116 110 121 120 118 130 128 131 133 135 138 140 139 142 142 139 133 138 140 142 147 152 153 150 151 149 144 142 138 138 139 136 135 136 134 133 137 138
216 231 221 224 232 20 316 55 54 301 252 211 195 266 163 254 247 189 216 240 221 85 230 172 38 7 -0 342 140 130 105 303 321 101 102 112 324 357 104 45 96 258 105 85 94 246 176 145 147 126 120 139 125 136 135 140 133 135 137 141 141 142 141 139 135 137 140 147 158 164 154 139 131 132 131 131 132 135 135 135 141 141 141 139 141 145 148
8 328 299 324 11 320 327 311 299 248 245 224 158 255 254 212 273 48 215 223 204 138 305 14 158 164 154 263 214 131 115 262 296 26 51 69 40 282 67 65 321 62 83 86 120 221 123 140 175 137 128 141 144 145 142 140 137 135 137 141 139 139 140 146 160 163 155 152 143 134 131 139 144 143 141 143 144 142 142 142 141 141 138 139 149 143 137
343 318 319 304 285 285 279 252 236 200 249 274 183 209 219 224 166 233 238 242 171 177 185 209 180 171 152 334 70 102 117 336 333 276 240 116 44 325 85 139 242 260 79 74 165 151 119 113 135 115 133 141 145 147 146 140 140 141 140 143 145 148 153 153 148 139 135 133 136 139 139 138 134 134 136 136 136 138 141 141 137 138 145 148 138 136 140
282 253 264 280 250 229 232 223 182 242 185 187 240 200 196 220 210 223 189 244 26 263 122 349 46 37 78 247 107 7 47 347 285 330 56 84 161 274 10 74 223 90 99 171 225 123 135 136 134 131 141 142 149 149 146 143 144 143 144 151 153 153 146 141 144 143 142 138 134 133 134 134 135 136 138 136 137 138 137 136 140 145 146 142 140 137 135
246 242 242 222 238 223 221 235 177 200 253 219 184 203 196 223 207 217 248 186 168 221 151 198 170 208 149 259 312 134 167 177 252 79 82 116 257 95 256 84 60 74 180 225 197 116 108 122 140 136 143 147 150 150 146 148 148 149 151 152 149 145 146 147 145 142 139 138 139 140 142 143 142 144 143 141 143 139 140 142 145 142 140 137 136 136 131
256 223 229 219 213 194 135 304 168 200 206 208 221 217 193 213 210 207 221 113 196 180 159 201 163 211 141 144 250 129 283 106 154 255 114 233 59 11 30 83 113 202 215 137 120 110 111 121 130 137 150 155 156 153 152 152 153 154 155 154 156 151 150 150 147 143 142 144 143 146 144 145 145 144 141 143 141 141 139 138 136 141 140 137 134 134 137
226 220 194 187 359 283 205 212 176 215 220 210 208 228 213 211 206 202 99 143 211 143 182 169 184 185 144 167 267 130 178 171 141 56 343 258 105 83 35 43 266 271 304 203 161 189 160 150 153 149 155 158 158 156 157 156 158 158 161 159 155 153 155 152 149 146 147 145 148 146 143 146 145 142 144 143 142 141 138 137 145 141 139 139 140 142 148
260 269 249 220 229 208 217 229 204 215 212 219 222 216 232 212 208 96 95 208 205 175 161 171 196 168 162 169 190 158 234 106 95 115 266 68 82 102 296 268 240 196 137 103 211 131 125 145 151 150 155 157 159 160 164 161 163 166 161 150 156 158 155 154 151 151 148 150 150 147 150 147 144 144 143 144 145 139 140 146 144 142 144 143 146 151 153
253 237 226 215 218 199 203 220 235 220 224 227 209 232 221 252 204 158 173 234 256 152 169 174 179 152 172 124 276 200 147 114 119 136 3 105 136 233 155 233 220 177 222 222 151 129 126 141 151 153 157 159 159 163 164 161 161 162 158 161 162 159 159 158 156 154 153 155 152 152 153 151 151 148 152 146 144 144 151 150 147 151 148 150 152 159 156
305 292 232 220 232 211 216 215 223 231 204 229 229 216 189 195 228 184 144 198 199 194 158 181 160 185 171 169 211 118 168 156 176 142 177 213 180 178 199 157 172 180 202 287 74 113 129 141 145 154 156 159 161 164 160 159 163 165 163 163 161 160 159 159 158 155 158 157 156 157 158 158 157 156 153 153 152 149 156 151 153 154 157 159 159 162 167
233 221 249 247 232 238 227 211 216 224 207 203 210 218 211 209 216 174 136 185 196 179 169 202 160 221 141 164 211 168 191 195 151 146 212 191 196 205 224 168 210 228 149 148 102 120 127 136 146 155 159 160 163 162 159 161 162 161 162 163 162 163 163 162 159 160 163 163 161 163 159 161 163 161 162 164 158 155 157 159 160 160 163 165 166 169 172
222 248 231 229 236 215 211 223 203 218 214 201 196 208 202 215 216 157 167 201 173 173 174 187 176 201 146 198 197 186 199 105 177 196 206 203 194 200 177 195 215 212 85 83 92 122 134 144 153 156 160 161 163 161 161 161 163 163 164 164 163 164 163 164 162 165 167 166 164 164 164 170 167 166 162 165 160 162 160 162 166 167 165 168 170 174 172
208 214 225 217 231 257 230 215 224 233 226 201 200 203 201 210 206 163 158 200 180 191 190 189 178 185 183 191 203 165 111 207 230 203 228 194 165 207 198 278 43 86 117 135 121 129 140 152 154 158 161 161 163 161 160 160 164 163 166 165 165 166 166 166 165 169 169 169 166 170 169 172 169 168 167 168 161 168 167 167 171 170 168 170 175 178 176